1491530400.43,60335,11.13,72576.5,-11.89,-13.07,-13.07,0,*62
1491530401.65,60336,11.13,72572.5,-11.91,-13.07,-12.97,0,*60
1491530402.87,60337,11.13,72576.5,-11.91,-12.97,-12.97,0,*69
1491530404.09,60338,11.13,72582.3,-11.91,-12.97,-12.93,0,*62
1491530405.36,60339,11.13,72586.5,-11.89,-12.79,-12.89,0,*61
1491530406.63,60340,11.13,72590.0,-11.91,-12.83,-12.83,0,*69
1491530407.87,60341,11.13,72596.8,-11.91,-12.93,-12.83,0,*69
1491530409.14,60342,11.13,72602.8,-11.91,-12.79,-12.83,0,*6E
1491530410.39,60343,11.13,72602.0,-11.91,-12.79,-12.93,0,*6E
1491530411.68,60344,11.13,72602.0,-11.89,-12.79,-12.79,0,*64
1491530412.91,60345,11.13,72594.8,-11.87,-12.93,-12.93,0,*6B
1491530414.2,60346,11.13,72604.3,-11.89,-12.79,-12.79,0,*66
1491530415.42,60347,11.13,72600.0,-11.91,-12.97,-12.97,0,*6E
1491530416.69,60348,11.13,72606.3,-11.91,-12.83,-12.83,0,*61
1491530417.99,60349,11.13,72602.8,-11.89,-12.75,-12.79,0,*65
1491530419.28,60350,11.13,72608.3,-11.89,-12.79,-12.79,0,*61
1491530420.58,60351,11.13,72604.5,-11.89,-12.79,-12.75,0,*6C
1491530421.87,60352,11.13,72600.3,-11.89,-12.79,-12.75,0,*6F
1491530423.15,60353,11.13,72602.5,-11.87,-12.79,-12.75,0,*60
1491530424.45,60354,11.13,72610.5,-11.89,-12.75,-12.75,0,*65
1491530425.72,60355,11.13,72608.5,-11.87,-12.75,-12.75,0,*6A
1491530427.0,60356,11.13,72618.3,-11.87,-12.75,-12.79,0,*65
1491530428.3,60357,11.13,72622.5,-11.89,-12.71,-12.75,0,*62
1491530429.57,60358,11.13,72620.3,-11.87,-12.71,-12.75,0,*63
1491530430.85,60359,11.13,72618.3,-11.87,-12.75,-12.75,0,*66
1491530432.13,60360,11.13,72612.8,-11.87,-12.75,-12.79,0,*60
1491530433.41,60361,11.13,72612.8,-11.87,-12.75,-12.79,0,*61
1491530434.69,60362,11.13,72606.0,-11.87,-12.75,-12.79,0,*62
1491530435.96,60363,11.13,72600.3,-11.87,-12.75,-12.79,0,*63
1491530437.26,60364,11.13,72600.0,-11.89,-12.75,-12.79,0,*6A
1491530438.56,60365,11.13,72604.8,-11.89,-12.75,-12.71,0,*63
1491530439.84,60366,11.13,72606.5,-11.87,-12.75,-12.75,0,*6A
1491530441.12,60367,11.13,72604.8,-11.87,-12.75,-12.75,0,*6B
1491530442.42,60368,11.13,72604.0,-11.89,-12.79,-12.75,0,*66
1491530443.69,60369,11.13,72604.5,-11.87,-12.79,-12.75,0,*69
1491530444.97,60370,11.13,72614.5,-11.87,-12.79,-12.71,0,*65
1491530446.25,60371,11.13,72610.8,-11.87,-12.75,-12.75,0,*6C
1491530447.53,60372,11.13,72614.0,-11.87,-12.75,-12.75,0,*6F
1491530448.8,60373,11.13,72610.3,-11.87,-12.75,-12.75,0,*6E
1491530450.08,60374,11.13,72600.5,-11.87,-12.75,-12.75,0,*69
1491530451.36,60375,11.13,72598.3,-11.87,-12.71,-12.75,0,*6C
1491530452.66,60376,11.13,72596.3,-11.89,-12.75,-12.75,0,*65
1491530453.93,60377,11.13,72600.8,-11.87,-12.75,-12.75,0,*6A
1491530455.22,60378,11.13,72618.3,-11.87,-12.75,-12.71,0,*61
1491530456.49,60379,11.13,72614.8,-11.87,-12.75,-12.75,0,*64
1491530457.79,60380,11.13,72612.0,-11.89,-12.71,-12.71,0,*6C
1491530459.07,60381,11.13,72606.3,-11.87,-12.75,-12.75,0,*63
1491530460.35,60382,11.13,72612.3,-11.87,-12.75,-12.71,0,*64
1491530461.63,60383,11.13,72610.3,-11.87,-12.75,-12.71,0,*65
1491530462.91,60384,11.13,72608.0,-11.87,-12.71,-12.71,0,*66
1491530464.19,60385,11.13,72604.3,-11.87,-12.75,-12.75,0,*67
1491530465.47,60386,11.13,72602.8,-11.87,-12.75,-12.75,0,*64
1491530466.75,60387,11.13,72610.8,-11.87,-12.75,-12.75,0,*65
1491530468.03,60388,11.13,72610.8,-11.87,-12.71,-12.71,0,*6A
1491530469.3,60389,11.13,72618.5,-11.87,-12.71,-12.71,0,*6B
1491530470.58,60390,11.13,72616.0,-11.87,-12.57,-12.57,0,*63
1491530471.87,60391,11.13,72616.8,-11.85,-12.57,-12.57,0,*60
1491530473.16,60392,11.13,72618.0,-11.85,-12.57,-12.57,0,*63
1491530474.45,60393,11.13,72622.0,-11.85,-12.65,-12.57,0,*63
1491530475.74,60394,11.13,72622.3,-11.85,-12.57,-12.65,0,*64
1491530477.03,60395,11.13,72620.0,-11.85,-12.65,-12.65,0,*64
1491530478.31,60396,11.13,72614.5,-11.85,-12.65,-12.65,0,*67
1491530479.6,60397,11.13,72614.5,-11.85,-12.71,-12.65,0,*63
1491530480.9,60398,11.13,72604.8,-11.85,-12.65,-12.71,0,*6C
1491530482.19,60399,11.13,72602.0,-11.85,-12.65,-12.57,0,*69
1491530483.49,60400,11.13,72602.5,-11.85,-12.65,-12.71,0,*6A
1491530484.79,60401,11.13,72606.0,-11.85,-12.65,-12.71,0,*6B
1491530486.08,60402,11.13,72608.3,-11.85,-12.71,-12.65,0,*68
1491530487.37,60403,11.13,72602.8,-11.85,-12.65,-12.65,0,*6C
1491530488.66,60404,11.13,72600.5,-11.85,-12.71,-12.65,0,*6E
1491530489.92,60405,11.13,72600.5,-11.83,-12.65,-12.57,0,*6D
1491530491.22,60406,11.13,72596.5,-11.85,-12.57,-12.57,0,*69
1491530492.51,60407,11.06,72598.5,-11.85,-12.57,-12.57,0,*68
1491530493.78,60408,11.13,72600.3,-11.83,-12.57,-12.53,0,*65
1491530495.07,60409,11.13,72604.3,-11.85,-12.57,-12.57,0,*66
1491530496.36,60410,11.13,72604.8,-11.85,-12.57,-12.57,0,*6E
1491530497.63,60411,11.13,72606.5,-11.83,-12.57,-12.57,0,*69
1491530498.9,60412,11.06,72602.3,-11.83,-12.57,-12.65,0,*6B
1491530500.16,60413,11.13,72604.8,-11.83,-12.65,-12.65,0,*6B
1491530501.43,60414,11.13,72610.8,-11.83,-12.53,-12.65,0,*69
1491530502.72,60415,11.13,72604.5,-11.85,-12.71,-12.65,0,*6E
1491530503.98,60416,11.13,72602.5,-11.83,-12.65,-12.65,0,*6E
1491530505.27,60417,11.06,72598.5,-11.85,-12.65,-12.65,0,*69
1491530506.53,60418,11.13,72598.3,-11.83,-12.71,-12.65,0,*65
1491530507.8,60419,11.06,72594.8,-11.83,-12.65,-12.57,0,*60
1491530509.08,60420,11.13,72596.8,-11.83,-12.71,-12.71,0,*6B
1491530510.38,60421,11.13,72602.5,-11.85,-12.71,-12.71,0,*6C
1491530511.65,60422,11.06,72602.5,-11.83,-12.83,-12.71,0,*64
1491530512.93,60423,11.13,72608.5,-11.83,-12.71,-12.71,0,*68
1491530514.23,60424,11.06,72606.3,-11.85,-12.71,-12.71,0,*69
1491530515.49,60425,11.06,72612.8,-11.83,-12.65,-12.65,0,*6E
1491530516.79,60426,11.13,72618.8,-11.85,-12.71,-12.71,0,*6B
1491530518.07,60427,11.13,72616.5,-11.83,-12.71,-12.71,0,*6C
1491530519.36,60428,11.13,72618.3,-11.85,-12.71,-12.71,0,*65
1491530520.66,60429,11.13,72620.5,-11.85,-12.71,-12.71,0,*64
1491530521.95,60430,11.13,72616.8,-11.85,-12.71,-12.65,0,*69
1491530523.23,60431,11.06,72614.5,-11.83,-12.71,-12.71,0,*6B
1491530524.52,60432,11.13,72616.3,-11.85,-12.71,-12.65,0,*6B
1491530525.78,60433,11.13,72620.3,-11.83,-12.71,-12.65,0,*6C
1491530527.05,60434,11.13,72616.3,-11.83,-12.71,-12.65,0,*6B
1491530528.32,60435,11.06,72608.0,-11.83,-12.71,-12.65,0,*6A
1491530529.59,60436,11.13,72608.3,-11.83,-12.71,-12.75,0,*68
1491530530.86,60437,11.13,72614.5,-11.83,-12.71,-12.71,0,*6D
1491530532.13,60438,11.13,72620.3,-11.83,-12.71,-12.65,0,*67
1491530533.43,60439,11.13,72620.5,-11.85,-12.71,-12.71,0,*65
1491530534.7,60440,11.13,72618.3,-11.83,-12.71,-12.71,0,*6D
1491530535.98,60441,11.13,72616.3,-11.83,-12.75,-12.75,0,*6C
1491530537.26,60442,11.13,72624.5,-11.83,-12.71,-12.71,0,*6F
1491530538.53,60443,11.13,72620.8,-11.83,-12.65,-12.71,0,*6B
1491530539.8,60444,11.13,72616.0,-11.83,-12.65,-12.65,0,*69
1491530541.07,60445,11.13,72620.3,-11.83,-12.71,-12.71,0,*68
1491530542.34,60446,11.13,72626.3,-11.83,-12.71,-12.65,0,*6E
1491530543.6,60447,11.13,72622.5,-11.83,-12.71,-12.65,0,*6F
1491530544.87,60448,11.13,72624.3,-11.83,-12.71,-12.65,0,*60
1491530546.14,60449,11.13,72622.0,-11.83,-12.71,-12.71,0,*64
1491530547.44,60450,11.13,72622.3,-11.85,-12.65,-12.71,0,*6F
1491530548.72,60451,11.13,72622.3,-11.83,-12.71,-12.71,0,*6D
1491530550.01,60452,11.13,72626.0,-11.85,-12.65,-12.65,0,*68
1491530551.27,60453,11.06,72622.3,-11.83,-12.65,-12.65,0,*6F
1491530552.54,60454,11.13,72626.8,-11.83,-12.65,-12.71,0,*6D
1491530553.84,60455,11.13,72624.0,-11.85,-12.71,-12.71,0,*6F
1491530555.12,60456,11.13,72620.5,-11.83,-12.71,-12.71,0,*6A
1491530556.39,60457,11.13,72622.5,-11.83,-12.65,-12.71,0,*6E
1491530557.66,60458,11.13,72622.3,-11.83,-12.71,-12.65,0,*61
1491530558.93,60459,11.13,72620.0,-11.83,-12.65,-12.57,0,*64
1491530560.19,60460,11.13,72620.8,-11.83,-12.65,-12.57,0,*6E
1491530561.46,60461,11.13,72618.8,-11.83,-12.65,-12.65,0,*6E
1491530562.72,60462,11.13,72616.5,-11.83,-12.65,-12.65,0,*6D
1491530564.01,60463,11.13,72614.0,-11.85,-12.65,-12.57,0,*6B
1491530565.28,60464,11.06,72612.0,-11.83,-12.57,-12.57,0,*6B
1491530566.58,60465,11.13,72616.5,-11.85,-12.53,-12.57,0,*68
1491530567.85,60466,11.13,72614.3,-11.83,-12.57,-12.57,0,*69
1491530569.11,60467,11.13,72612.3,-11.83,-12.71,-12.65,0,*6D
1491530570.4,60468,11.13,72612.3,-11.81,-12.61,-12.61,0,*65
1491530571.7,60469,11.13,72610.3,-11.81,-12.65,-12.61,0,*60
1491530572.99,60470,11.13,72610.3,-11.81,-12.61,-12.61,0,*6C
1491530574.28,60471,11.13,72604.5,-11.81,-12.61,-12.61,0,*6D
1491530575.57,60472,11.13,72604.3,-11.81,-12.65,-12.65,0,*6E
1491530576.85,60473,11.06,72600.0,-11.81,-12.61,-12.65,0,*6B
1491530578.15,60474,11.06,72596.0,-11.81,-12.61,-12.61,0,*68
1491530579.41,60475,11.13,72596.5,-11.79,-12.61,-12.61,0,*6E
1491530580.7,60476,11.13,72596.5,-11.81,-12.65,-12.65,0,*6A
1491530581.99,60477,11.13,72602.8,-11.81,-12.65,-12.61,0,*6F
1491530583.28,60478,11.13,72594.5,-11.81,-12.61,-12.61,0,*64
1491530584.55,60479,11.13,72590.8,-11.79,-12.65,-12.61,0,*66
1491530585.84,60480,11.13,72588.8,-11.81,-12.65,-12.61,0,*67
1491530587.14,60481,11.06,72586.8,-11.81,-12.61,-12.61,0,*62
1491530588.43,60482,11.06,72586.8,-11.81,-12.61,-12.61,0,*61
1491530589.69,60483,11.13,72588.0,-11.79,-12.65,-12.61,0,*63
1491530590.98,60484,11.13,72584.5,-11.81,-12.65,-12.65,0,*67
1491530592.27,60485,11.13,72580.0,-11.81,-12.65,-12.65,0,*66
1491530593.56,60486,11.13,72570.5,-11.81,-12.61,-12.65,0,*61
1491530594.85,60487,11.13,72564.0,-11.81,-12.65,-12.65,0,*64
1491530596.14,60488,11.13,72562.5,-11.81,-12.65,-12.65,0,*6B
1491530597.41,60489,11.13,72562.3,-11.79,-12.65,-12.61,0,*69
1491530598.7,60490,11.13,72558.5,-11.81,-12.65,-12.65,0,*62
1491530599.99,60491,11.13,72554.0,-11.81,-12.65,-12.65,0,*63
1491530601.28,60492,11.13,72550.3,-11.81,-12.65,-12.65,0,*60
1491530602.54,60493,11.13,72556.3,-11.79,-12.71,-12.65,0,*63
1491530603.82,60494,11.06,72544.8,-11.79,-12.71,-12.71,0,*61
1491530605.09,60495,11.13,72558.5,-11.79,-12.71,-12.71,0,*60
1491530606.37,60496,11.13,72570.0,-11.79,-12.71,-12.71,0,*63
1491530607.67,60497,11.13,72572.0,-11.81,-12.79,-12.79,0,*65
1491530608.94,60498,11.13,72570.3,-11.79,-12.79,-12.71,0,*65
1491530610.24,60499,11.13,72572.3,-11.81,-12.79,-12.79,0,*6B
1491530611.54,60500,11.06,72564.0,-11.81,-12.79,-12.79,0,*6A
1491530612.84,60501,11.13,72564.8,-11.81,-12.71,-12.79,0,*63
1491530614.13,60502,11.13,72576.5,-11.81,-12.79,-12.83,0,*6D
1491530615.4,60503,11.13,72578.8,-11.83,-12.83,-12.83,0,*6B
1491530616.67,60504,11.13,72576.3,-11.83,-12.83,-12.75,0,*65
1491530617.97,60505,11.13,72588.0,-11.81,-12.71,-12.79,0,*67
1491530619.27,60506,11.13,72586.8,-11.81,-12.71,-12.71,0,*6C
1491530620.54,60507,11.13,72578.8,-11.81,-12.79,-12.93,0,*69
1491530621.76,60508,11.13,72574.0,-11.83,-12.97,-12.89,0,*6F
1491530622.98,60509,11.13,72568.5,-11.83,-12.89,-12.89,0,*61
1491530624.2,60510,11.13,72564.0,-11.83,-12.97,-12.89,0,*66
1491530625.42,60511,11.13,72566.5,-11.83,-12.89,-12.89,0,*68
1491530626.64,60512,11.13,72570.8,-11.83,-12.97,-12.97,0,*6B
1491530627.87,60513,11.13,72572.0,-11.83,-12.97,-12.97,0,*6A
1491530629.09,60514,11.13,72576.0,-11.83,-12.97,-12.97,0,*6D
1491530630.31,60515,11.13,72592.0,-11.83,-12.89,-12.89,0,*6C
1491530631.58,60516,11.13,72598.3,-11.83,-12.75,-12.75,0,*6F
1491530632.86,60517,11.13,72598.0,-11.83,-12.75,-12.75,0,*6E
1491530634.13,60518,11.13,72594.8,-11.83,-12.75,-12.75,0,*61
1491530635.43,60519,11.13,72596.5,-11.85,-12.75,-12.75,0,*66
1491530636.71,60520,11.13,72600.5,-11.83,-12.75,-12.75,0,*6A
1491530637.98,60521,11.13,72596.3,-11.83,-12.65,-12.71,0,*6E
1491530639.28,60522,11.13,72596.8,-11.85,-12.65,-12.71,0,*6B
1491530640.55,60523,11.13,72600.0,-11.83,-12.71,-12.65,0,*6C
1491530641.82,60524,11.13,72598.3,-11.83,-12.71,-12.71,0,*6E
1491530643.1,60525,11.13,72610.5,-11.83,-12.71,-12.71,0,*6F
1491530644.37,60526,11.13,72610.8,-11.83,-12.71,-12.71,0,*6C
1491530645.65,60527,11.13,72616.0,-11.83,-12.71,-12.71,0,*6D
1491530646.91,60528,11.13,72614.3,-11.83,-12.65,-12.65,0,*62
1491530648.19,60529,11.13,72604.5,-11.83,-12.71,-12.71,0,*63
1491530649.45,60530,11.13,72604.8,-11.83,-12.65,-12.65,0,*6B
1491530650.73,60531,11.13,72604.3,-11.83,-12.65,-12.71,0,*6F
1491530651.99,60532,11.13,72612.8,-11.83,-12.65,-12.65,0,*69
1491530653.26,60533,11.13,72614.0,-11.83,-12.65,-12.65,0,*68
1491530654.52,60534,11.13,72626.0,-11.83,-12.65,-12.57,0,*6E
1491530655.79,60535,11.13,72628.0,-11.83,-12.57,-12.65,0,*6F
1491530657.06,60536,11.13,72642.3,-11.83,-12.57,-12.57,0,*6D
1491530658.32,60537,11.13,72634.8,-11.83,-12.65,-12.57,0,*6D
1491530659.61,60538,11.06,72636.0,-11.81,-12.65,-12.65,0,*61
1491530660.9,60539,11.13,72642.8,-11.81,-12.65,-12.65,0,*60
1491530662.12,60540,11.13,72632.0,-11.79,-13.07,-13.11,0,*6E
1491530663.39,60541,11.13,72616.5,-11.81,-13.33,-13.23,0,*6E
1491530664.63,60542,11.13,72608.3,-11.81,-13.11,-13.11,0,*6C
1491530665.88,60543,11.13,72606.0,-11.83,-13.37,-13.51,0,*6F
1491530667.1,60544,11.13,72608.5,-11.83,-13.51,-13.51,0,*68
1491530668.37,60545,11.13,72600.3,-11.85,-13.43,-13.29,0,*63
1491530669.58,60546,11.13,72594.8,-11.83,-13.15,-13.15,0,*6A
1491530670.82,60547,11.13,72596.3,-11.85,-13.11,-13.11,0,*6D
1491530672.06,60548,11.13,72592.0,-11.85,-13.15,-13.15,0,*62
1491530673.29,60549,11.13,72590.3,-11.85,-13.11,-13.15,0,*67
1491530674.54,60550,11.13,72578.8,-11.85,-12.89,-12.89,0,*6B
1491530675.78,60551,11.06,72574.3,-11.85,-12.89,-12.89,0,*6A
1491530677.02,60552,11.13,72578.0,-11.85,-12.89,-12.97,0,*66
1491530678.29,60553,11.13,72578.3,-11.85,-13.01,-12.97,0,*66
1491530679.56,60554,11.13,72582.3,-11.85,-13.01,-12.97,0,*61
1491530680.81,60555,11.06,72578.0,-11.87,-12.93,-13.01,0,*66
1491530682.08,60556,11.06,72576.3,-11.87,-13.01,-13.01,0,*6F
1491530683.37,60557,11.06,72576.3,-11.85,-12.75,-12.83,0,*65
1491530684.67,60558,11.13,72584.5,-11.85,-12.75,-12.75,0,*63
1491530685.95,60559,11.13,72596.0,-11.87,-12.79,-12.79,0,*60
1491530687.21,60560,11.13,72594.0,-11.85,-12.83,-12.97,0,*6D
1491530688.46,60561,11.06,72594.5,-11.85,-12.97,-12.89,0,*66
1491530689.7,60562,11.13,72592.0,-11.87,-13.01,-13.07,0,*6E
1491530690.92,60563,11.13,72602.3,-11.87,-13.15,-13.15,0,*69
1491530692.16,60564,11.13,72602.3,-11.87,-13.07,-13.01,0,*68
1491530693.38,60565,11.06,72598.8,-11.87,-12.89,-12.89,0,*6F
1491530694.63,60566,11.13,72606.0,-11.87,-12.79,-12.89,0,*63
1491530695.91,60567,11.06,72602.3,-11.87,-12.79,-12.79,0,*6D
1491530697.18,60568,11.13,72606.5,-11.87,-12.75,-12.79,0,*6E
1491530698.46,60569,11.13,72602.8,-11.87,-12.75,-12.79,0,*6F
1491530699.74,60570,11.13,72602.0,-11.87,-12.79,-12.79,0,*6B
1491530701.02,60571,11.06,72596.8,-11.87,-12.75,-12.71,0,*6E
1491530702.32,60572,11.13,72600.3,-11.85,-12.71,-12.71,0,*6B
1491530703.62,60573,11.13,72598.8,-11.85,-12.71,-12.71,0,*6A
1491530704.92,60574,11.13,72594.8,-11.89,-12.75,-12.75,0,*61
1491530706.19,60575,11.13,72598.8,-11.87,-12.75,-12.75,0,*6E
1491530707.47,60576,11.13,72594.0,-11.87,-12.75,-12.75,0,*6D
1491530708.75,60577,11.13,72598.0,-11.87,-12.75,-12.75,0,*6C
1491530710.03,60578,11.13,72594.0,-11.87,-12.75,-12.75,0,*63
1491530711.33,60579,11.13,72594.0,-11.89,-12.75,-12.71,0,*68
1491530712.61,60580,11.13,72600.8,-11.87,-12.75,-12.75,0,*64
1491530713.88,60581,11.13,72600.5,-11.87,-12.79,-12.75,0,*69
1491530715.16,60582,11.13,72598.3,-11.87,-12.75,-12.75,0,*66
1491530716.44,60583,11.13,72588.3,-11.87,-12.75,-12.75,0,*67
1491530717.72,60584,11.06,72588.5,-11.87,-12.79,-12.79,0,*60
1491530718.99,60585,11.13,72604.5,-11.87,-12.79,-12.75,0,*6D
1491530720.29,60586,11.13,72602.8,-11.85,-12.71,-12.71,0,*60
1491530721.57,60587,11.13,72590.0,-11.83,-12.71,-12.71,0,*67
1491530722.86,60588,11.13,72590.5,-11.85,-12.71,-12.65,0,*6B
1491530724.14,60589,11.13,72592.0,-11.85,-12.65,-12.65,0,*6F
1491530725.43,60590,11.13,72596.3,-11.85,-12.65,-12.57,0,*66
1491530726.73,60591,11.06,72594.8,-11.85,-12.65,-12.57,0,*67
1491530728.02,60592,11.13,72604.3,-11.85,-12.53,-12.57,0,*61
1491530729.31,60593,11.13,72608.8,-11.85,-12.53,-12.57,0,*60
1491530730.58,60594,11.06,72602.8,-11.83,-12.65,-12.65,0,*65
1491530731.84,60595,11.13,72606.8,-11.83,-12.65,-12.65,0,*64
1491530733.11,60596,11.13,72612.3,-11.83,-12.65,-12.53,0,*62
1491530734.41,60597,11.13,72608.0,-11.85,-12.57,-12.53,0,*64
1491530735.71,60598,11.13,72606.3,-11.85,-12.53,-12.57,0,*6B
1491530736.99,60599,11.13,72602.0,-11.85,-12.65,-12.65,0,*6E
1491530738.28,60600,11.13,72598.0,-11.85,-12.57,-12.65,0,*6C
1491530739.55,60601,11.06,72594.8,-11.83,-12.53,-12.57,0,*6E
1491530740.82,60602,11.13,72588.5,-11.83,-12.57,-12.53,0,*6D
1491530742.09,60603,11.13,72586.0,-11.83,-12.65,-12.57,0,*69
1491530743.37,60604,11.13,72584.0,-11.83,-12.57,-12.71,0,*6B
1491530744.67,60605,11.13,72576.8,-11.85,-12.65,-12.71,0,*6D
1491530745.93,60606,11.13,72572.3,-11.83,-12.65,-12.65,0,*6D
1491530747.23,60607,11.13,72566.8,-11.85,-12.71,-12.71,0,*6A
1491530748.5,60608,11.13,72590.8,-11.83,-12.65,-12.71,0,*66
1491530749.77,60609,11.13,72588.0,-11.83,-12.71,-12.65,0,*67
1491530751.04,60610,11.13,72586.8,-11.83,-12.71,-12.71,0,*6A
1491530752.32,60611,11.13,72568.0,-11.83,-12.71,-12.71,0,*6B
1491530753.62,60612,11.13,72574.8,-11.85,-12.71,-12.71,0,*6E
1491530754.89,60613,11.13,72576.8,-11.83,-12.65,-12.71,0,*6C
1491530756.16,60614,11.13,72578.8,-11.83,-12.71,-12.65,0,*6B
1491530757.43,60615,11.06,72582.3,-11.83,-12.65,-12.57,0,*6E
1491530758.69,60616,11.13,72566.8,-11.83,-12.57,-12.65,0,*6D
1491530759.97,60617,11.13,72550.5,-11.83,-12.71,-12.71,0,*6D
1491530761.24,60618,11.13,72554.5,-11.83,-12.71,-12.71,0,*62
1491530762.51,60619,11.13,72568.0,-11.83,-12.71,-12.65,0,*66
1491530763.79,60620,11.13,72572.0,-11.83,-12.71,-12.71,0,*69
1491530765.09,60621,11.13,72576.0,-11.85,-12.71,-12.71,0,*6E
1491530766.38,60622,11.13,72572.0,-11.85,-12.71,-12.75,0,*69
1491530767.68,60623,11.13,72572.3,-11.85,-12.71,-12.83,0,*61
1491530768.95,60624,11.13,72588.0,-11.83,-12.75,-12.75,0,*6D
1491530770.23,60625,11.13,72586.5,-11.83,-12.71,-12.71,0,*6C
1491530771.5,60626,11.13,72588.3,-11.83,-12.71,-12.71,0,*6F
1491530772.8,60627,11.13,72598.5,-11.85,-12.71,-12.71,0,*68
1491530774.07,60628,11.13,72608.3,-11.83,-12.83,-12.75,0,*68
1491530775.29,60629,11.13,72604.3,-11.83,-12.89,-12.89,0,*60
1491530776.5,60630,11.13,72602.5,-11.83,-13.15,-13.15,0,*68
1491530777.74,60631,11.13,72598.3,-11.85,-13.23,-13.15,0,*6A
1491530778.96,60632,11.13,72598.3,-11.83,-13.15,-13.11,0,*6E
1491530780.19,60633,11.13,72594.0,-11.85,-13.15,-13.15,0,*6D
1491530781.44,60634,11.13,72588.3,-11.85,-12.97,-12.89,0,*65
1491530782.68,60635,11.13,72586.5,-11.85,-13.11,-13.11,0,*6B
1491530783.89,60636,11.06,72586.0,-11.83,-13.15,-13.23,0,*6B
1491530785.13,60637,11.13,72584.5,-11.85,-13.11,-13.15,0,*6D
1491530786.42,60638,11.13,72582.5,-11.85,-13.01,-13.01,0,*66
1491530787.66,60639,11.13,72572.5,-11.85,-13.11,-13.11,0,*67
1491530788.9,60640,11.13,72570.3,-11.85,-13.11,-13.11,0,*69
1491530790.19,60641,11.13,72570.3,-11.85,-13.01,-13.01,0,*68
1491530791.42,60642,11.13,72564.8,-11.87,-12.93,-12.93,0,*69
1491530792.66,60643,11.13,72566.0,-11.85,-12.97,-12.97,0,*6A
1491530793.91,60644,11.13,72574.8,-11.85,-12.97,-12.97,0,*6D
1491530795.14,60645,11.13,72578.0,-11.87,-12.93,-12.93,0,*6E
1491530796.36,60646,11.13,72578.0,-11.87,-12.93,-12.89,0,*66
1491530797.65,60647,11.13,72580.8,-11.85,-12.83,-12.75,0,*67
1491530798.93,60648,11.13,72576.0,-11.87,-12.79,-12.79,0,*63
1491530800.18,60649,11.13,72574.5,-11.87,-12.89,-12.79,0,*6D
1491530801.4,60650,11.13,72572.3,-11.87,-12.93,-12.93,0,*6A
1491530802.65,60651,11.13,72576.3,-11.85,-12.89,-12.89,0,*69
1491530803.95,60652,11.13,72574.5,-11.85,-12.75,-12.75,0,*6A
1491530805.19,60653,11.13,72582.5,-11.87,-12.79,-12.93,0,*6D
1491530806.44,60654,11.13,72584.0,-11.87,-13.07,-13.01,0,*68
1491530807.66,60655,11.13,72586.3,-11.87,-12.93,-12.93,0,*6F
1491530808.91,60656,11.13,72582.3,-11.87,-12.79,-12.89,0,*63
1491530810.19,60657,11.13,72578.8,-11.87,-12.79,-12.79,0,*6D
1491530811.41,60658,11.13,72572.3,-11.87,-12.89,-12.89,0,*62
1491530812.68,60659,11.13,72582.8,-11.87,-12.79,-12.79,0,*63
1491530813.98,60660,11.13,72586.0,-11.89,-12.71,-12.71,0,*67
1491530815.26,60661,11.13,72576.8,-11.87,-12.75,-12.75,0,*68
1491530816.54,60662,11.13,72578.3,-11.87,-12.71,-12.71,0,*6B
1491530817.83,60663,11.13,72580.5,-11.85,-12.71,-12.65,0,*6D
1491530819.11,60664,11.06,72576.8,-11.87,-12.75,-12.75,0,*6D
1491530820.41,60665,11.13,72580.3,-11.85,-12.71,-12.71,0,*6E
1491530821.69,60666,11.13,72584.8,-11.87,-12.75,-12.75,0,*6F
1491530822.98,60667,11.13,72586.0,-11.85,-12.71,-12.71,0,*6C
1491530824.28,60668,11.13,72588.5,-11.85,-12.65,-12.71,0,*66
1491530825.57,60669,11.13,72598.3,-11.85,-12.71,-12.65,0,*67
1491530826.86,60670,11.13,72590.8,-11.85,-12.57,-12.65,0,*6B
1491530828.15,60671,11.13,72588.0,-11.85,-12.57,-12.57,0,*6B
1491530829.44,60672,11.13,72592.8,-11.85,-12.57,-12.65,0,*69
1491530830.74,60673,11.13,72594.8,-11.85,-12.53,-12.57,0,*6D
1491530832.03,60674,11.13,72596.3,-11.85,-12.57,-12.57,0,*6E
1491530833.32,60675,11.13,72596.0,-11.85,-12.57,-12.57,0,*6F
1491530834.62,60676,11.13,72600.8,-11.85,-12.65,-12.71,0,*69
1491530835.89,60677,11.13,72598.0,-11.83,-12.71,-12.71,0,*6B
1491530837.19,60678,11.13,72600.3,-11.85,-12.71,-12.71,0,*62
1491530838.48,60679,11.13,72600.0,-11.85,-12.65,-12.65,0,*63
1491530839.78,60680,11.13,72604.5,-11.85,-12.71,-12.71,0,*65
1491530841.08,60681,11.13,72600.5,-11.85,-12.65,-12.71,0,*61
1491530842.37,60682,11.13,72594.5,-11.85,-12.71,-12.65,0,*62
1491530843.63,60683,11.13,72580.3,-11.83,-12.65,-12.65,0,*60
1491530844.93,60684,11.13,72580.5,-11.85,-12.65,-12.71,0,*64
1491530846.23,60685,11.13,72586.5,-11.85,-12.71,-12.71,0,*60
1491530847.53,60686,11.13,72598.5,-11.85,-12.71,-12.71,0,*63
1491530848.81,60687,11.13,72600.3,-11.83,-12.71,-12.71,0,*64
1491530850.09,60688,11.13,72594.0,-11.85,-12.71,-12.65,0,*68
1491530851.38,60689,11.13,72600.0,-11.85,-12.57,-12.65,0,*6D
1491530852.65,60690,11.13,72594.0,-11.83,-12.65,-12.65,0,*62
1491530853.91,60691,11.13,72606.5,-11.83,-12.57,-12.57,0,*63
1491530855.21,60692,11.13,72606.5,-11.85,-12.71,-12.71,0,*66
1491530856.49,60693,11.13,72610.0,-11.83,-12.71,-12.71,0,*61
1491530857.77,60694,11.13,72612.0,-11.83,-12.71,-12.71,0,*66
1491530859.04,60695,11.13,72614.3,-11.83,-12.71,-12.71,0,*67
1491530860.32,60696,11.13,72602.8,-11.83,-12.71,-12.71,0,*64
1491530861.62,60697,11.13,72602.3,-11.85,-12.71,-12.71,0,*63
1491530862.89,60698,11.13,72602.0,-11.83,-12.71,-12.71,0,*6A
1491530864.18,60699,11.13,72604.5,-11.85,-12.83,-12.83,0,*6D
1491530865.46,60700,11.13,72604.0,-11.83,-12.75,-12.75,0,*6A
1491530866.76,60701,11.13,72600.8,-11.85,-12.75,-12.75,0,*6D
1491530868.03,60702,11.13,72600.0,-11.83,-12.75,-12.75,0,*68
1491530869.3,60703,11.13,72602.8,-11.83,-12.71,-12.65,0,*6C
1491530870.57,60704,11.13,72596.0,-11.83,-12.71,-12.75,0,*6A
1491530871.84,60705,11.13,72584.5,-11.83,-12.65,-12.71,0,*6A
1491530873.14,60706,11.13,72584.3,-11.85,-12.65,-12.71,0,*6F
1491530874.43,60707,11.13,72572.8,-11.85,-12.65,-12.65,0,*6B
1491530875.73,60708,11.13,72566.3,-11.85,-12.71,-12.71,0,*64
1491530877.01,60709,11.13,72554.8,-11.83,-12.71,-12.71,0,*63
1491530878.28,60710,11.13,72558.0,-11.83,-12.75,-12.71,0,*6F
1491530879.58,60711,11.13,72560.0,-11.85,-12.71,-12.71,0,*6C
1491530880.88,60712,11.13,72566.8,-11.85,-12.71,-12.71,0,*6F
1491530882.16,60713,11.13,72566.8,-11.83,-12.71,-12.71,0,*68
1491530883.43,60714,11.13,72568.5,-11.83,-12.71,-12.71,0,*6F
1491530884.71,60715,11.13,72578.3,-11.83,-12.71,-12.71,0,*6E
1491530886.01,60716,11.13,72580.0,-11.85,-12.75,-12.71,0,*6F
1491530887.28,60717,11.13,72578.3,-11.83,-12.83,-12.83,0,*6C
1491530888.57,60718,11.13,72574.8,-11.85,-12.83,-12.83,0,*65
1491530889.84,60719,11.13,72558.8,-11.83,-12.75,-12.83,0,*6B
1491530891.08,60720,11.13,72554.0,-11.83,-12.89,-12.83,0,*62
1491530892.36,60721,11.13,72556.3,-11.83,-12.75,-12.75,0,*69
1491530893.63,60722,11.13,72560.0,-11.83,-12.83,-12.75,0,*63
1491530894.92,60723,11.13,72572.0,-11.85,-12.75,-12.75,0,*6D
1491530896.22,60724,11.13,72568.3,-11.85,-12.75,-12.75,0,*6A
1491530897.52,60725,11.13,72566.0,-11.85,-12.75,-12.75,0,*6B
1491530898.82,60726,11.13,72570.3,-11.85,-12.75,-12.75,0,*68
1491530900.11,60727,11.13,72572.0,-11.85,-12.83,-12.75,0,*60